WZZ54W LDOS-EHEH

Flight info

Callsign WZZ54W
Flight time 1h 41m
Altitude 34000
Route BAREB DCT NOHAT DCT GOTAR DCT SUBEN T161 AKINI T159 PETIX DCT RIDSU Z114 ADENU L608 BATTY/N0331F180 T855 LNO
Aircraft A320/M-SDE3FGHIRWY/LB1

Departure

Time 2026-05-05 17:38
Airport Osijek Airport (LDOS)

Arrival

Time 2026-05-05 19:19
Airport Eindhoven Airport (EHEH)
Time Latitude Longitude Altitude Speed Heading
2026-05-05 17:35 45.46507 18.80774 294 ft 14 kts 111°
2026-05-05 17:35 45.46425 18.80800 297 ft 21 kts 200°
2026-05-05 17:35 45.46315 18.80852 295 ft 12 kts 97°
2026-05-05 17:36 45.46258 18.81055 295 ft 35 kts 112°
2026-05-05 17:36 45.46155 18.81437 293 ft 44 kts 110°
2026-05-05 17:36 45.46045 18.81858 292 ft 49 kts 110°
2026-05-05 17:36 45.45917 18.82337 293 ft 54 kts 111°
2026-05-05 17:37 45.45884 18.82582 298 ft 16 kts 90°
2026-05-05 17:37 45.45857 18.82585 297 ft 8 kts 259°
2026-05-05 17:37 45.45874 18.82509 295 ft 10 kts 284°
2026-05-05 17:37 45.45962 18.82176 292 ft 71 kts 291°
2026-05-05 17:38 45.46207 18.81248 296 ft 126 kts 290°
2026-05-05 17:38 45.46571 18.79877 324 ft 167 kts 291°
2026-05-05 17:38 45.47093 18.78330 809 ft 177 kts 302°
2026-05-05 17:38 45.47939 18.77063 1575 ft 180 kts 318°
2026-05-05 17:39 45.49107 18.76151 1930 ft 209 kts 338°
2026-05-05 17:39 45.50618 18.75937 2594 ft 224 kts
2026-05-05 17:39 45.52160 18.76362 3427 ft 227 kts
2026-05-05 17:39 45.53736 18.76806 4163 ft 234 kts
2026-05-05 17:40 45.55358 18.77270 4899 ft 243 kts
2026-05-05 17:40 45.57083 18.77753 5661 ft 265 kts
2026-05-05 17:40 45.58964 18.78256 6380 ft 290 kts
2026-05-05 17:40 45.61054 18.78473 6959 ft 314 kts 351°
2026-05-05 17:41 45.63166 18.77410 7427 ft 334 kts 324°
2026-05-05 17:41 45.64795 18.74938 7866 ft 354 kts 297°
2026-05-05 17:41 45.65877 18.71690 8262 ft 369 kts 292°
2026-05-05 17:41 45.67026 18.68425 8920 ft 376 kts 292°
2026-05-05 17:42 45.68071 18.64946 9472 ft 384 kts 288°
2026-05-05 17:42 45.69028 18.61344 10112 ft 389 kts 287°
2026-05-05 17:42 45.69969 18.57700 10772 ft 392 kts 287°
2026-05-05 17:42 45.70938 18.54041 11460 ft 394 kts 288°
2026-05-05 17:43 45.71952 18.50370 12142 ft 397 kts 289°
2026-05-05 17:43 45.73007 18.46694 12828 ft 400 kts 290°
2026-05-05 17:43 45.74102 18.43070 13498 ft 404 kts 294°
2026-05-05 17:43 45.75638 18.39669 14097 ft 410 kts 307°
2026-05-05 17:44 45.77542 18.36580 14694 ft 414 kts 309°
2026-05-05 17:44 45.79458 18.33487 15301 ft 415 kts 309°
2026-05-05 17:44 45.81374 18.30369 15857 ft 418 kts 309°
2026-05-05 17:44 45.83278 18.27253 16415 ft 421 kts 309°
2026-05-05 17:45 45.85213 18.24079 16967 ft 424 kts 309°
2026-05-05 17:45 45.87159 18.20885 17514 ft 427 kts 309°
2026-05-05 17:45 45.89133 18.17649 18069 ft 430 kts 309°
2026-05-05 17:45 45.91109 18.14408 18576 ft 433 kts 309°
2026-05-05 17:46 45.93097 18.11140 19062 ft 435 kts 309°
2026-05-05 17:46 45.95094 18.07854 19572 ft 437 kts 309°
2026-05-05 17:46 45.97106 18.04555 20042 ft 440 kts 309°
2026-05-05 17:46 45.99133 18.01230 20518 ft 442 kts 309°
2026-05-05 17:47 46.01159 17.97895 20955 ft 445 kts 309°
2026-05-05 17:47 46.03200 17.94523 21397 ft 447 kts 309°
2026-05-05 17:47 46.05244 17.91145 21822 ft 448 kts 309°
2026-05-05 17:47 46.07270 17.87793 22227 ft 450 kts 309°
2026-05-05 17:48 46.09331 17.84379 22652 ft 452 kts 309°
2026-05-05 17:48 46.11396 17.80947 23036 ft 454 kts 309°
2026-05-05 17:48 46.13473 17.77490 23403 ft 456 kts 309°
2026-05-05 17:48 46.15561 17.74010 23696 ft 460 kts 309°
2026-05-05 17:49 46.17644 17.70535 23965 ft 463 kts 309°
2026-05-05 17:49 46.19756 17.67010 24290 ft 465 kts 309°
2026-05-05 17:49 46.21883 17.63459 24620 ft 467 kts 309°
2026-05-05 17:49 46.24016 17.59897 24936 ft 469 kts 308°
2026-05-05 17:50 46.26158 17.56315 25265 ft 471 kts 308°
2026-05-05 17:50 46.28302 17.52725 25583 ft 473 kts 308°
2026-05-05 17:50 46.30460 17.49101 25904 ft 475 kts 308°
2026-05-05 17:50 46.32615 17.45475 26229 ft 477 kts 308°
2026-05-05 17:51 46.34763 17.41855 26531 ft 480 kts 308°
2026-05-05 17:51 46.36939 17.38189 26970 ft 479 kts 308°
2026-05-05 17:51 46.39102 17.34546 27451 ft 477 kts 308°
2026-05-05 17:51 46.41269 17.30884 27943 ft 476 kts 308°
2026-05-05 17:52 46.43419 17.27246 28447 ft 474 kts 308°
2026-05-05 17:52 46.45560 17.23617 28940 ft 473 kts 308°
2026-05-05 17:52 46.47699 17.19986 29452 ft 472 kts 308°
2026-05-05 17:52 46.49831 17.16362 29961 ft 471 kts 308°
2026-05-05 17:53 46.51933 17.12788 30417 ft 469 kts 308°
2026-05-05 17:53 46.54050 17.09179 30913 ft 467 kts 308°
2026-05-05 17:53 46.56150 17.05592 31394 ft 465 kts 307°
2026-05-05 17:53 46.58221 17.02051 31876 ft 463 kts 308°
2026-05-05 17:54 46.60300 16.98492 32369 ft 460 kts 308°
2026-05-05 17:54 46.62364 16.94960 32862 ft 458 kts 308°
2026-05-05 17:54 46.64429 16.91426 33349 ft 456 kts 308°
2026-05-05 17:54 46.66478 16.87913 33844 ft 454 kts 308°
2026-05-05 17:55 46.68512 16.84414 34261 ft 452 kts 308°
2026-05-05 17:55 46.70545 16.80913 34644 ft 451 kts 308°
2026-05-05 17:55 46.72575 16.77414 35038 ft 450 kts 308°
2026-05-05 17:55 46.74601 16.73920 35437 ft 449 kts 308°
2026-05-05 17:56 46.76611 16.70446 35801 ft 449 kts 308°
2026-05-05 17:56 46.80612 16.63509 35909 ft 448 kts 307°
2026-05-05 17:57 46.84186 16.56089 35907 ft 446 kts 302°
2026-05-05 17:57 46.87683 16.48589 35894 ft 445 kts 302°
2026-05-05 17:58 46.91150 16.41138 35894 ft 445 kts 302°
2026-05-05 17:58 46.94634 16.33632 35896 ft 445 kts 302°
2026-05-05 17:59 46.98096 16.26151 35887 ft 442 kts 302°
2026-05-05 17:59 47.01579 16.18773 35882 ft 443 kts 304°
2026-05-05 18:00 47.05335 16.11615 35878 ft 443 kts 306°
2026-05-05 18:00 47.09175 16.04511 35882 ft 443 kts 306°
2026-05-05 18:01 47.12930 15.97388 35879 ft 443 kts 305°
2026-05-05 18:01 47.16669 15.90172 35876 ft 443 kts 305°
2026-05-05 18:02 47.20400 15.82932 35881 ft 443 kts 304°
2026-05-05 18:02 47.24106 15.75740 35875 ft 444 kts 304°
2026-05-05 18:03 47.27851 15.68488 35876 ft 444 kts 305°
2026-05-05 18:03 47.31587 15.61226 35867 ft 444 kts 304°
2026-05-05 18:04 47.35290 15.53999 35860 ft 444 kts 304°
2026-05-05 18:04 47.39014 15.46705 35881 ft 444 kts 304°
2026-05-05 18:05 47.42717 15.39451 35874 ft 444 kts 304°
2026-05-05 18:05 47.46425 15.32165 35851 ft 444 kts 304°
2026-05-05 18:06 47.50129 15.24860 35853 ft 444 kts 304°
2026-05-05 18:06 47.53840 15.17528 35840 ft 444 kts 304°
2026-05-05 18:07 47.57533 15.10202 35829 ft 444 kts 303°
2026-05-05 18:07 47.61199 15.02896 35818 ft 444 kts 303°
2026-05-05 18:08 47.64892 14.95550 35817 ft 444 kts 304°
2026-05-05 18:08 47.68586 14.88191 35803 ft 444 kts 304°
2026-05-05 18:09 47.71653 14.82044 35820 ft 444 kts 303°
2026-05-05 18:09 47.75923 14.73459 35805 ft 444 kts 303°
2026-05-05 18:10 47.78974 14.67298 35801 ft 444 kts 303°
2026-05-05 18:10 47.82641 14.59881 35775 ft 444 kts 303°
2026-05-05 18:11 47.86278 14.52520 35772 ft 444 kts 303°
2026-05-05 18:11 47.89936 14.45084 35769 ft 444 kts 303°
2026-05-05 18:12 47.93580 14.37658 35762 ft 443 kts 303°
2026-05-05 18:12 47.97225 14.30230 35760 ft 443 kts 303°
2026-05-05 18:13 48.00843 14.22844 35765 ft 443 kts 303°
2026-05-05 18:13 48.04481 14.15400 35779 ft 443 kts 303°
2026-05-05 18:14 48.08100 14.07938 35773 ft 443 kts 302°
2026-05-05 18:14 48.11705 14.00472 35763 ft 444 kts 302°
2026-05-05 18:15 48.15339 13.92964 35769 ft 444 kts 302°
2026-05-05 18:15 48.18936 13.85498 35766 ft 444 kts 302°
2026-05-05 18:16 48.22550 13.77975 35784 ft 444 kts 302°
2026-05-05 18:16 48.26165 13.70438 35785 ft 445 kts 302°
2026-05-05 18:17 48.29766 13.62909 35776 ft 446 kts 302°
2026-05-05 18:17 48.33383 13.55318 35774 ft 446 kts 302°
2026-05-05 18:18 48.36993 13.47723 35783 ft 446 kts 302°
2026-05-05 18:18 48.40595 13.40114 35790 ft 447 kts 301°
2026-05-05 18:19 48.43963 13.32283 35789 ft 442 kts 291°
2026-05-05 18:19 48.46259 13.23766 35785 ft 440 kts 288°
2026-05-05 18:20 48.48529 13.15156 35789 ft 441 kts 288°
2026-05-05 18:20 48.50768 13.06625 35800 ft 441 kts 288°
2026-05-05 18:21 48.53042 12.97927 35790 ft 442 kts 287°
2026-05-05 18:21 48.55279 12.89351 35796 ft 442 kts 287°
2026-05-05 18:22 48.57516 12.80757 35806 ft 442 kts 287°
2026-05-05 18:22 48.59766 12.72061 35814 ft 443 kts 287°
2026-05-05 18:23 48.62005 12.63373 35813 ft 443 kts 287°
2026-05-05 18:23 48.64221 12.54739 35825 ft 443 kts 287°
2026-05-05 18:24 48.66453 12.46046 35823 ft 443 kts 287°
2026-05-05 18:24 48.68678 12.37319 35819 ft 443 kts 287°
2026-05-05 18:25 48.70874 12.28665 35824 ft 443 kts 287°
2026-05-05 18:25 48.73085 12.19923 35838 ft 444 kts 286°
2026-05-05 18:26 48.75401 12.11210 35825 ft 449 kts 292°
2026-05-05 18:26 48.78322 12.02886 35821 ft 450 kts 293°
2026-05-05 18:27 48.81276 11.94463 35821 ft 451 kts 293°
2026-05-05 18:27 48.84203 11.86082 35848 ft 451 kts 293°
2026-05-05 18:28 48.88616 11.73424 35819 ft 452 kts 293°
2026-05-05 18:28 48.91549 11.64950 35816 ft 453 kts 293°
2026-05-05 18:29 48.94476 11.56456 35819 ft 453 kts 293°
2026-05-05 18:29 48.97401 11.47951 35846 ft 454 kts 293°
2026-05-05 18:30 49.00318 11.39434 35819 ft 456 kts 293°
2026-05-05 18:30 49.03254 11.30848 35811 ft 457 kts 293°
2026-05-05 18:31 49.06177 11.22278 35817 ft 458 kts 293°
2026-05-05 18:31 49.09140 11.13556 35825 ft 458 kts 293°
2026-05-05 18:32 49.12860 11.05698 35841 ft 468 kts 311°
2026-05-05 18:32 49.17643 10.98917 35856 ft 470 kts 314°
2026-05-05 18:33 49.22496 10.92060 35842 ft 471 kts 313°
2026-05-05 18:33 49.27251 10.85286 35841 ft 472 kts 314°
2026-05-05 18:34 49.31903 10.78217 35839 ft 468 kts 304°
2026-05-05 18:34 49.34933 10.69581 35858 ft 458 kts 285°
2026-05-05 18:35 49.36989 10.60315 35834 ft 459 kts 285°
2026-05-05 18:35 49.39024 10.51004 35830 ft 460 kts 285°
2026-05-05 18:36 49.41032 10.41732 35843 ft 461 kts 285°
2026-05-05 18:36 49.43048 10.32386 35846 ft 461 kts 285°
2026-05-05 18:37 49.45063 10.23014 35840 ft 462 kts 285°
2026-05-05 18:37 49.47077 10.13630 35840 ft 462 kts 285°
2026-05-05 18:38 49.49066 10.04289 35844 ft 463 kts 284°
2026-05-05 18:38 49.51061 9.94838 35841 ft 463 kts 284°
2026-05-05 18:39 49.53045 9.85400 35859 ft 463 kts 285°
2026-05-05 18:39 49.55022 9.76001 35851 ft 464 kts 285°
2026-05-05 18:40 49.57006 9.66526 35839 ft 465 kts 284°
2026-05-05 18:40 49.58984 9.57004 35833 ft 466 kts 284°
2026-05-05 18:41 49.60942 9.47538 35833 ft 466 kts 284°
2026-05-05 18:41 49.62922 9.37942 35850 ft 467 kts 284°
2026-05-05 18:42 49.64869 9.28445 35854 ft 467 kts 284°
2026-05-05 18:42 49.66823 9.18859 35849 ft 467 kts 284°
2026-05-05 18:43 49.68770 9.09264 35847 ft 468 kts 284°
2026-05-05 18:43 49.70695 8.99731 35861 ft 468 kts 284°
2026-05-05 18:44 49.72628 8.90102 35861 ft 468 kts 284°
2026-05-05 18:44 49.74549 8.80496 35847 ft 468 kts 284°
2026-05-05 18:45 49.76467 8.70849 35845 ft 469 kts 284°
2026-05-05 18:45 49.78366 8.61252 35843 ft 469 kts 284°
2026-05-05 18:46 49.80276 8.51590 35852 ft 469 kts 284°
2026-05-05 18:46 49.82173 8.41924 35846 ft 469 kts 284°
2026-05-05 18:47 49.84056 8.32245 35848 ft 469 kts 284°
2026-05-05 18:47 49.85924 8.22618 35838 ft 469 kts 284°
2026-05-05 18:48 49.87792 8.12932 35853 ft 469 kts 284°
2026-05-05 18:48 49.89657 8.03228 35852 ft 469 kts 284°
2026-05-05 18:49 49.91516 7.93500 35848 ft 469 kts 284°
2026-05-05 18:49 49.93352 7.83851 35836 ft 469 kts 283°
2026-05-05 18:50 49.95200 7.74087 35851 ft 470 kts 283°
2026-05-05 18:50 49.97026 7.64387 35830 ft 470 kts 283°
2026-05-05 18:51 49.98857 7.54631 35830 ft 469 kts 283°
2026-05-05 18:51 49.99770 7.49748 35523 ft 470 kts 283°
2026-05-05 18:51 50.00678 7.44859 34851 ft 470 kts 283°
2026-05-05 18:52 50.01573 7.40015 34099 ft 473 kts 283°
2026-05-05 18:52 50.02488 7.35062 33220 ft 477 kts 283°
2026-05-05 18:52 50.03410 7.30060 32321 ft 480 kts 284°
2026-05-05 18:52 50.04334 7.25050 31412 ft 483 kts 284°
2026-05-05 18:53 50.05254 7.20058 30533 ft 485 kts 284°
2026-05-05 18:53 50.06184 7.15001 29555 ft 487 kts 284°
2026-05-05 18:53 50.07115 7.09913 28510 ft 489 kts 284°
2026-05-05 18:53 50.08043 7.04809 27514 ft 489 kts 284°
2026-05-05 18:54 50.08960 6.99753 26827 ft 482 kts 284°
2026-05-05 18:54 50.09864 6.94762 26139 ft 475 kts 284°
2026-05-05 18:54 50.10746 6.89889 25450 ft 468 kts 284°
2026-05-05 18:54 50.11621 6.85023 24979 ft 464 kts 284°
2026-05-05 18:55 50.12488 6.80188 24780 ft 463 kts 284°
2026-05-05 18:55 50.13353 6.75348 24812 ft 462 kts 284°
2026-05-05 18:55 50.14202 6.70569 24805 ft 462 kts 284°
2026-05-05 18:55 50.15061 6.65727 24811 ft 462 kts 284°
2026-05-05 18:56 50.15919 6.60894 24812 ft 462 kts 284°
2026-05-05 18:56 50.16492 6.57667 24803 ft 462 kts 284°
2026-05-05 18:56 50.17376 6.52836 24790 ft 463 kts 288°
2026-05-05 18:56 50.19357 6.46923 24795 ft 465 kts 306°
2026-05-05 18:57 50.20683 6.44291 24807 ft 466 kts 308°
2026-05-05 18:57 50.22712 6.40353 24803 ft 464 kts 308°
2026-05-05 18:57 50.24756 6.36436 24802 ft 464 kts 309°
2026-05-05 18:57 50.26807 6.32530 24812 ft 465 kts 309°
2026-05-05 18:58 50.28868 6.28614 24811 ft 465 kts 309°
2026-05-05 18:58 50.30926 6.24694 24826 ft 465 kts 309°
2026-05-05 18:58 50.32952 6.20818 24830 ft 465 kts 309°
2026-05-05 18:58 50.34999 6.16885 24824 ft 465 kts 308°
2026-05-05 18:59 50.37044 6.12939 24820 ft 465 kts 308°
2026-05-05 18:59 50.39084 6.08991 24840 ft 465 kts 308°
2026-05-05 18:59 50.41117 6.05050 24838 ft 465 kts 308°
2026-05-05 18:59 50.43129 6.01147 24844 ft 465 kts 308°
2026-05-05 19:00 50.45163 5.97201 24842 ft 464 kts 308°
2026-05-05 19:00 50.47192 5.93262 24853 ft 464 kts 308°
2026-05-05 19:00 50.49224 5.89312 24855 ft 464 kts 308°
2026-05-05 19:00 50.51261 5.85343 24846 ft 465 kts 308°
2026-05-05 19:01 50.53325 5.81407 24854 ft 466 kts 313°
2026-05-05 19:01 50.55738 5.78110 24854 ft 466 kts 326°
2026-05-05 19:01 50.58597 5.75706 24860 ft 466 kts 339°
2026-05-05 19:01 50.61726 5.74386 24852 ft 465 kts 353°
2026-05-05 19:02 50.64952 5.74216 24862 ft 463 kts
2026-05-05 19:02 50.68110 5.75157 24864 ft 461 kts 17°
2026-05-05 19:02 50.71209 5.76512 24858 ft 462 kts 17°
2026-05-05 19:02 50.74262 5.77853 24394 ft 461 kts 17°
2026-05-05 19:03 50.77345 5.79209 23637 ft 457 kts 17°
2026-05-05 19:03 50.80396 5.80551 22795 ft 453 kts 16°
2026-05-05 19:03 50.83429 5.81883 21929 ft 449 kts 16°
2026-05-05 19:03 50.86430 5.83200 21097 ft 445 kts 16°
2026-05-05 19:04 50.89405 5.84507 20282 ft 441 kts 15°
2026-05-05 19:04 50.92349 5.85806 19494 ft 437 kts 15°
2026-05-05 19:04 50.95228 5.87077 18734 ft 433 kts 15°
2026-05-05 19:04 50.98115 5.88351 17955 ft 429 kts 15°
2026-05-05 19:05 51.00999 5.89622 17090 ft 426 kts 15°
2026-05-05 19:05 51.03855 5.90883 16262 ft 424 kts 15°
2026-05-05 19:05 51.06690 5.92136 15452 ft 422 kts 15°
2026-05-05 19:05 51.09530 5.92963 14672 ft 419 kts
2026-05-05 19:06 51.12437 5.92846 13948 ft 417 kts 352°
2026-05-05 19:06 51.15267 5.92204 14059 ft 407 kts 352°
2026-05-05 19:06 51.18069 5.91603 14855 ft 406 kts 352°
2026-05-05 19:06 51.20881 5.90960 15568 ft 407 kts 347°
2026-05-05 19:07 51.23566 5.89517 16176 ft 409 kts 332°
2026-05-05 19:07 51.25945 5.87037 16614 ft 405 kts 319°
2026-05-05 19:07 51.27824 5.83843 16041 ft 397 kts 304°
2026-05-05 19:07 51.29346 5.80255 15319 ft 395 kts 302°
2026-05-05 19:08 51.30902 5.76565 14634 ft 392 kts 302°
2026-05-05 19:08 51.32431 5.72959 13954 ft 390 kts 304°
2026-05-05 19:08 51.33962 5.69381 13264 ft 387 kts 305°
2026-05-05 19:08 51.35482 5.65848 12578 ft 382 kts 305°
2026-05-05 19:09 51.36981 5.62369 11909 ft 378 kts 305°
2026-05-05 19:09 51.38343 5.58874 11282 ft 373 kts 295°
2026-05-05 19:09 51.38985 5.54890 10669 ft 369 kts 274°
2026-05-05 19:09 51.38705 5.50793 10035 ft 366 kts 253°
2026-05-05 19:10 51.37698 5.47136 9366 ft 363 kts 243°
2026-05-05 19:10 51.36549 5.43552 8646 ft 360 kts 243°
2026-05-05 19:10 51.35396 5.39991 7935 ft 359 kts 243°
2026-05-05 19:10 51.34252 5.36482 6936 ft 351 kts 243°
2026-05-05 19:11 51.33121 5.33037 5760 ft 348 kts 243°
2026-05-05 19:11 51.32023 5.29683 5125 ft 332 kts 243°
2026-05-05 19:11 51.30996 5.26552 4976 ft 304 kts 243°
2026-05-05 19:11 51.30051 5.23686 4841 ft 280 kts 243°
2026-05-05 19:12 51.29186 5.21032 4713 ft 259 kts 245°
2026-05-05 19:12 51.28717 5.18365 4434 ft 244 kts 268°
2026-05-05 19:12 51.28903 5.15744 3975 ft 235 kts 292°
2026-05-05 19:12 51.29676 5.13496 3491 ft 228 kts 315°
2026-05-05 19:13 51.30868 5.11915 2994 ft 219 kts 337°
2026-05-05 19:13 51.32273 5.11144 2517 ft 210 kts 356°
2026-05-05 19:13 51.33706 5.11173 2044 ft 204 kts 13°
2026-05-05 19:13 51.34985 5.11949 1873 ft 201 kts 33°
2026-05-05 19:14 51.35877 5.13648 1875 ft 206 kts 65°
2026-05-05 19:14 51.36442 5.15753 1870 ft 203 kts 63°
2026-05-05 19:14 51.37022 5.17739 1864 ft 193 kts 62°
2026-05-05 19:14 51.37385 5.19769 1869 ft 194 kts 92°
2026-05-05 19:15 51.36758 5.21734 1985 ft 209 kts 128°
2026-05-05 19:15 51.35527 5.23005 1923 ft 216 kts 153°
2026-05-05 19:15 51.34328 5.24125 1875 ft 177 kts 122°
2026-05-05 19:15 51.34081 5.25722 1880 ft 136 kts 75°
2026-05-05 19:16 51.34382 5.27083 1873 ft 127 kts 58°
2026-05-05 19:16 51.34931 5.28178 1873 ft 126 kts 40°
2026-05-05 19:16 51.35679 5.28868 1869 ft 128 kts 21°
2026-05-05 19:16 51.36523 5.29310 1867 ft 127 kts 21°
2026-05-05 19:17 51.37359 5.29776 1864 ft 127 kts 22°
2026-05-05 19:17 51.38186 5.30290 1778 ft 128 kts 26°
2026-05-05 19:17 51.38984 5.30906 1522 ft 126 kts 32°
2026-05-05 19:17 51.39732 5.31659 1247 ft 126 kts 32°
2026-05-05 19:18 51.40461 5.32419 1023 ft 127 kts 33°
2026-05-05 19:18 51.41209 5.33192 789 ft 127 kts 34°
2026-05-05 19:18 51.41929 5.33996 678 ft 126 kts 35°
2026-05-05 19:18 51.42660 5.34823 468 ft 128 kts 33°
2026-05-05 19:19 51.43393 5.35646 279 ft 130 kts 35°
2026-05-05 19:19 51.44128 5.36466 118 ft 128 kts 34°
2026-05-05 19:19 51.44777 5.37190 85 ft 93 kts 34°
2026-05-05 19:19 51.45157 5.37614 70 ft 42 kts 34°
2026-05-05 19:20 51.45331 5.37807 82 ft 19 kts 34°
2026-05-05 19:20 51.45425 5.37774 81 ft 20 kts 308°
2026-05-05 19:20 51.45454 5.37704 83 ft 0 kts 275°
2026-05-05 19:20 51.45456 5.37699 84 ft 0 kts 296°
2026-05-05 19:21 51.45460 5.37699 83 ft 0 kts 334°
2026-05-05 19:21 51.45473 5.37701 82 ft 4 kts
2026-05-05 19:21 51.45510 5.37728 84 ft 8 kts 30°
2026-05-05 19:21 51.45513 5.37732 83 ft 0 kts 33°
2026-05-05 19:22 51.45515 5.37734 83 ft 1 kts 33°
2026-05-05 19:22 51.45523 5.37743 82 ft 1 kts 34°
2026-05-05 19:22 51.45535 5.37757 85 ft 4 kts 36°
2026-05-05 19:22 51.45564 5.37790 83 ft 6 kts 36°
2026-05-05 19:23 51.45595 5.37827 84 ft 3 kts 37°
2026-05-05 19:23 51.45617 5.37874 82 ft 8 kts 69°
2026-05-05 19:23 51.45658 5.37910 72 ft 9 kts 16°
2026-05-05 19:23 51.45728 5.37974 71 ft 13 kts 35°
2026-05-05 19:24 51.45812 5.38069 69 ft 17 kts 34°
2026-05-05 19:24 51.45908 5.38175 73 ft 9 kts 35°
2026-05-05 19:24 51.45963 5.38238 71 ft 11 kts 34°
2026-05-05 19:24 51.45979 5.38254 76 ft 3 kts 34°
2026-05-05 19:25 51.45986 5.38265 72 ft 3 kts 46°
2026-05-05 19:25 51.45994 5.38307 75 ft 6 kts 83°
2026-05-05 19:25 51.45987 5.38339 78 ft 0 kts 126°
2026-05-05 19:27 51.45927 5.38469 66 ft 18 kts 126°
2026-05-05 19:27 51.45868 5.38602 75 ft 18 kts 125°
2026-05-05 19:27 51.45811 5.38731 72 ft 14 kts 125°
2026-05-05 19:27 51.45793 5.38794 73 ft 4 kts 94°
2026-05-05 19:28 51.45782 5.38866 65 ft 10 kts 115°
2026-05-05 19:28 51.45752 5.38937 70 ft 0 kts 126°